This is the latest recevied weather packets stored in our database for station/object N9DMT-13. If no packets are shown the sender has not sent any weather packets the latest 10 day(s).
| Time | Temp. | Humidity | Pressure | Rain* | Wind** | Luminosity | Snow |
|---|---|---|---|---|---|---|---|
| 1778276432 | 22.78° C | 25% | 972 hPa | 0 mm | - | - | - |
| 1778276130 | 22.22° C | 26% | 972.1 hPa | 0 mm | - | - | - |
| 1778275830 | 22.22° C | 28% | 972.3 hPa | 0 mm | - | - | - |
| 1778275529 | 22.78° C | 29% | 972.4 hPa | 0 mm | - | - | - |
| 1778275228 | 22.22° C | 25% | 972.4 hPa | 0 mm | - | - | - |
| 1778274927 | 22.22° C | 24% | 972.5 hPa | 0 mm | - | - | - |
| 1778274626 | 21.67° C | 25% | 972.4 hPa | 0 mm | - | - | - |
| 1778274326 | 22.22° C | 27% | 972.7 hPa | 0 mm | - | - | - |
| 1778274025 | 22.22° C | 27% | 972.6 hPa | 0 mm | - | - | - |
| 1778273724 | 22.78° C | 26% | 972.9 hPa | 0 mm | - | - | - |
| 1778273423 | 22.78° C | 26% | 973 hPa | 0 mm | - | - | - |
| 1778273122 | 22.22° C | 26% | 973 hPa | 0 mm | - | - | - |
| 1778272822 | 22.22° C | 26% | 973.2 hPa | 0 mm | - | - | - |
| 1778272521 | 22.22° C | 25% | 973.2 hPa | 0 mm | - | - | - |
| 1778272220 | 22.22° C | 24% | 973.3 hPa | 0 mm | - | - | - |
| 1778271919 | 21.67° C | 28% | 973.4 hPa | 0 mm | - | - | - |
| 1778271618 | 21.67° C | 27% | 973.5 hPa | 0 mm | - | - | - |
| 1778271318 | 20.56° C | 27% | 973.4 hPa | 0 mm | - | - | - |
| 1778271017 | 20° C | 30% | 973.6 hPa | 0 mm | - | - | - |
| 1778270716 | 20.56° C | 25% | 973.8 hPa | 0 mm | - | - | - |
| 1778270415 | 21.11° C | 26% | 973.9 hPa | 0 mm | - | - | - |
| 1778270115 | 22.22° C | 26% | 973.8 hPa | 0 mm | - | - | - |
| 1778269814 | 21.67° C | 29% | 974.1 hPa | 0 mm | - | - | - |
| 1778269513 | 21.67° C | 26% | 974.2 hPa | 0 mm | - | - | - |
| 1778269212 | 22.22° C | 28% | 974.2 hPa | 0 mm | - | - | - |
* Rain latest hour (hover to see other rain measurements)
** Current wind speed in m/s (hover to see current wind gust speed)